Regional Weather Roundup
Issued by NWS

Home | Current Version | Previous Version | Text Only | Print | Product List | Glossary Off
Versions: 1 2 3 4 5 6 7 8 9 10 11 12 13 14 15 16 17 18 19 20 21 22 23 24 25 26 27

000
ASUS45 KBOU 162307
RWRCO

WEATHER ROUNDUP FOR COLORADO
NATIONAL WEATHER SERVICE DENVER/BOULDER CO
500 PM MDT MON OCT 16 2017

NOTE: "FAIR" INDICATES FEW OR NO CLOUDS BELOW 12000 FEET WITH NO
SIGNIFICANT WEATHER AND/OR OBSTRUCTIONS TO VISIBILITY.

COZ001>005-013-030-031-170000-
...NORTHWEST COLORADO...

CITY           SKY/WX    TMP DP  RH WIND       PRES   REMARKS
CRAIG          FAIR      67  -4   6 W12       30.35S
HAYDEN         FAIR      64   0   7 W13       30.38S
MEEKER         FAIR      68   2   7 W10       30.35F
RABBIT EARS PA FAIR      45  10  24 W8G21     30.55S
STEAMBOAT SPGS FAIR      64   2   8 W9        30.38S
WALDEN         FAIR      59  -2   8 W13G20    30.42S
$$

COZ006>008-011-170000-
...WEST CENTRAL VALLEYS...

CITY           SKY/WX    TMP DP  RH WIND       PRES   REMARKS
GRAND JUNCTION FAIR      66   9  10 NW12      30.33F
MONTROSE       FAIR      65  10  11 NW8       30.36S
EAGLE          FAIR      67  -2   6 W21G28    30.36F
RIFLE          FAIR      69   5   8 W22       30.33S
DELTA          FAIR      73   8   8 W12       30.31F
NUCLA          FAIR      72   5   7 CALM      30.38F
$$

COZ017>023-064>068-170000-
...SOUTHWEST COLORADO...

CITY           SKY/WX    TMP DP  RH WIND       PRES   REMARKS
DURANGO        FAIR      69  13  11 SW12      30.38F
CORTEZ         FAIR      71   9   9 SW6       30.36F
PAGOSA SPRINGS FAIR      68   3   8 S12       30.44S
TELLURIDE      FAIR      61   6  11 W10       30.53R
WOLF CREEK PAS FAIR      46   9  21 S18G24    30.70F
$$

COZ009-010-012-014-032>034-037-058>063-170000-
...CENTRAL COLORADO...

CITY           SKY/WX    TMP DP  RH WIND       PRES   REMARKS
ASPEN          FAIR      64   0   7 N8        30.41S
BUENA VISTA    FAIR      68 -13   4 SW12G17   30.38S
COPPER MTN     FAIR      46 -33   3 NW18G26   30.63S
BERTHOUD PASS  FAIR      37  30  75 NW31G38   30.62R
COTTONWOOD PAS   N/A     64 N/A N/A W9G26     30.50S
GUNNISON       FAIR      67  -7   5 W16       30.40S
KREMMLING      FAIR      72  -4   5 W12       30.38S
LEADVILLE      FAIR      56  -7   7 NW12      30.51R
MONARCH PASS   FAIR      46  -6  11 W25G36    30.74S
SALIDA         NOT AVBL
SUNLIGHT       FAIR      46   3  17 SW8G23    30.61S
WILKERSON PASS FAIR      52 -18   5 NW5       30.61S
$$

COZ069>075-170000-
...SAN LUIS VALLEY/SANGRE DE CRISTO MOUNTAINS...

CITY           SKY/WX    TMP DP  RH WIND       PRES   REMARKS
ALAMOSA        FAIR      67  13  12 VRB3      30.37F
DEL NORTE      FAIR      63  13  14 SE5       30.42F
LA VETA PASS   FAIR      55   7  14 S16       30.64S
SAGUACHE       FAIR      64   9  11 S7        30.42S
$$

COZ035-036-038>040-170000-
...NORTHERN COLORADO FRONT RANGE...

CITY           SKY/WX    TMP DP  RH WIND       PRES   REMARKS
DENVER INTL AP FAIR      76   6   7 W8        30.21S
DMNS CITY PARK   N/A     70  21  15 E7G13     30.20F
AURORA         MOSUNNY   71  19  14 CALM      30.23F
FRONT RANGE AP MOSUNNY   75   9   7 NW6       30.22F
ERIE MUNI ARPT FAIR      69  18  14 SE3       30.24S
BOULDER MUN AP FAIR      73  19  13 SW8       30.18F
CENTENNIAL     PTSUNNY   72   9   8 CALM      30.24S
BROOMFIELD     PTSUNNY   72  18  13 S5        30.23F
FORT COLLINS   FAIR      76  21  12 SE3       30.19S
LONGMONT       FAIR      73  21  14 CALM      30.20S
$$

COZ041-046-047-076>085-087-088-170000-
...PIKES PEAK/PALMER DIVIDE AND SOUTHERN FOOTHILLS...

CITY           SKY/WX    TMP DP  RH WIND       PRES   REMARKS
COLO. SPRINGS  PTSUNNY   74   7   7 SE12      30.26F
A. F. ACADEMY  FAIR      72  -3   5 S7        30.28R
SCHRIEVER AFB  FAIR      73   5   7 SE5       30.27S
CHEYENNE MTN   FAIR      64  10  12 W3        30.25F
ELLICOTT       FAIR     N/A N/A N/A SW3       30.26R
FALCON         FAIR      71   3   7 E5        30.32R
FORT CARSON    FAIR      76   4   6 SE8       30.22F
LIMON          FAIR      75   3   6 NW12      30.22S
MONUMENT HILL  FAIR      66   5   9 N3        30.33S
CANON CITY     SUNNY     82   0   4 SW12      30.18F
WALSENBURG     FAIR      79   9   7 W13       30.25S
TRINIDAD       FAIR      78  10   7 S5        30.24F
$$

COZ042>045-048>051-090-091-170000-
...NORTHEAST COLORADO...

CITY           SKY/WX    TMP DP  RH WIND       PRES   REMARKS
GREELEY ARPT   FAIR      78  18  10 CALM      30.18S
AKRON          NOT AVBL
BURLINGTON     FAIR      79  24  13 SW9       30.14F
WRAY           FAIR      75  12   9 NW8       30.12R
YUMA           FAIR      72  19  14 NW3       30.15S
STERLING       FAIR      73  27  17 N9        30.12R
HOLYOKE        FAIR      73  28  19 W5        30.11F
FORT MORGAN    FAIR      78   8   7 W6        30.17S
$$

COZ086-089-092>099-170000-
...SOUTHEAST COLORADO...

CITY           SKY/WX    TMP DP  RH WIND       PRES   REMARKS
PUEBLO         FAIR      81   6   5 CALM      30.16F
LA JUNTA       FAIR      80  18  10 CALM      30.15F
LAMAR          FAIR      80  27  14 S6        30.13F
SPRINGFIELD      N/A     73  31  21 S13       30.19F
$$




USA.gov is the U.S. government's official web portal to all federal, state and local government web resources and services.